This is the latest recevied weather packets stored in our database for station/object KC5DAQ-27. If no packets are shown the sender has not sent any weather packets the latest 10 day(s).
| Time | Temp. | Humidity | Pressure | Rain* | Wind** | Luminosity | Snow |
|---|---|---|---|---|---|---|---|
| 1778242562 | 18.89° C | 91% | 1004.4 hPa | 0 mm | - | 26 W/m² | - |
| 1778242503 | 18.89° C | 91% | 1004.4 hPa | 0 mm | - | 25 W/m² | - |
| 1778242442 | 18.89° C | 91% | 1004.3 hPa | 0 mm | - | 25 W/m² | - |
| 1778242383 | 18.89° C | 91% | 1004.1 hPa | 0 mm | - | 23 W/m² | - |
| 1778242322 | 18.89° C | 91% | 1004.2 hPa | 0 mm | - | 23 W/m² | - |
| 1778242262 | 18.89° C | 91% | 1004.2 hPa | 0 mm | - | 23 W/m² | - |
| 1778242205 | 18.89° C | 91% | 1004.3 hPa | 0 mm | - | 21 W/m² | - |
| 1778242143 | 18.89° C | 91% | 1004.2 hPa | 0 mm | - | 21 W/m² | - |
| 1778242082 | 18.89° C | 91% | 1004.2 hPa | 0 mm | - | 23 W/m² | - |
| 1778242023 | 18.89° C | 91% | 1004.2 hPa | 0 mm | - | 21 W/m² | - |
| 1778241964 | 18.89° C | 91% | 1004.2 hPa | 0 mm | - | 19 W/m² | - |
| 1778241902 | 18.89° C | 91% | 1004.1 hPa | 0 mm | - | 18 W/m² | - |
| 1778241843 | 18.89° C | 91% | 1004 hPa | 0 mm | - | 21 W/m² | - |
| 1778241783 | 18.89° C | 91% | 1003.9 hPa | 0 mm | - | 19 W/m² | - |
| 1778241722 | 18.89° C | 91% | 1003.8 hPa | 0 mm | - | 19 W/m² | - |
| 1778241662 | 18.89° C | 90% | 1003.8 hPa | 0 mm | - | 18 W/m² | - |
| 1778241604 | 18.89° C | 90% | 1003.9 hPa | 0 mm | - | 18 W/m² | - |
| 1778241542 | 18.89° C | 90% | 1003.9 hPa | 0 mm | - | 14 W/m² | - |
| 1778241482 | 18.89° C | 90% | 1004.1 hPa | 0 mm | - | 11 W/m² | - |
| 1778241422 | 18.89° C | 90% | 1004.1 hPa | 0 mm | - | 9 W/m² | - |
| 1778241364 | 18.89° C | 90% | 1004.1 hPa | 0 mm | - | 7 W/m² | - |
| 1778241302 | 19.44° C | 90% | 1004.1 hPa | 0 mm | - | 5 W/m² | - |
| 1778241243 | 19.44° C | 90% | 1004.2 hPa | 0 mm | - | 5 W/m² | - |
| 1778241184 | 19.44° C | 90% | 1004.3 hPa | 0 mm | - | 0 W/m² | - |
| 1778241122 | 19.44° C | 90% | 1004.3 hPa | 0 mm | - | 0 W/m² | - |
* Rain latest hour (hover to see other rain measurements)
** Current wind speed in m/s (hover to see current wind gust speed)